This demonstration page uses our WeatherBlox Daily Observations layout. Learn more.

Left ArrowRight Arrow

38.80484, -77.04692

Hourly Observations for November 24, 2020

Temp ( °F °C ) Dew Point ( °F °C ) Humidity (%) Winds ( mph kmh ) Pressure ( in mb ) Visibility ( mi km ) Precip ( " mm )
12:52 am 00:52 Partly Cloudy 44 6.7 26 -3.3 49 49 WNW 9 15 30.3 1026 10 16.0934 0 0
1:52 am 01:52 Mostly Cloudy 43 6.1 26 -3.3 51 51 WNW 7 11 30.31 1026 10 16.0934 0 0
2:52 am 02:52 Mostly Cloudy 44 6.7 26 -3.3 49 49 WNW 10 17 30.32 1027 10 16.0934 0 0
3:52 am 03:52 Mostly Cloudy 43 6.1 27 -2.8 53 53 WNW 9 15 30.32 1027 10 16.0934 0 0
4:52 am 04:52 Partly Cloudy 42 5.6 27 -2.8 55 55 NNW 9 15 30.34 1027 10 16.0934 0 0
5:52 am 05:52 Mostly Clear 40 4.4 27 -2.8 60 60 NNW 6 9 30.35 1028 10 16.0934 0 0
6:52 am 06:52 Mostly Clear 39 3.9 28 -2.2 65 65 NNW 6 9 30.38 1029 10 16.0934 0 0
7:52 am 07:52 Mostly Sunny 42 5.6 28 -2.2 58 58 NW 5 7 30.4 1030 10 16.0934 0 0
8:52 am 08:52 Partly Cloudy 45 7.2 29 -1.7 54 54 N 9 15 30.42 1030 10 16.0934 0 0
9:52 am 09:52 Partly Cloudy 47 8.3 29 -1.7 50 50 NNW 7 11 30.42 1030 10 16.0934 0 0
10:52 am 10:52 Mostly Sunny 49 9.4 28 -2.2 44 44 NNE 9 15 30.42 1030 10 16.0934 0 0
11:52 am 11:52 Mostly Sunny 50 10 26 -3.3 39 39 VRB 3 6 30.41 1030 10 16.0934 0 0
12:52 pm 12:52 Mostly Sunny 52 11.1 25 -3.9 35 35 Calm 30.38 1029 10 16.0934 0 0
1:52 pm 13:52 Mostly Sunny 50 10 26 -3.3 39 39 E 3 6 30.37 1028 10 16.0934 0 0
2:52 pm 14:52 Partly Cloudy 51 10.6 27 -2.8 39 39 ENE 3 6 30.35 1028 10 16.0934 0 0
3:52 pm 15:52 Partly Cloudy 50 10 27 -2.8 41 41 S 3 6 30.36 1028 10 16.0934 0 0
4:52 pm 16:52 Mostly Cloudy 49 9.4 30 -1.1 48 48 S 5 7 30.37 1028 10 16.0934 0 0
5:52 pm 17:52 Mostly Cloudy 48 8.9 31 -0.6 52 52 S 5 7 30.38 1029 10 16.0934 0 0
6:52 pm 18:52 Cloudy 48 8.9 31 -0.6 52 52 SE 3 6 30.38 1029 10 16.0934 0 0
7:52 pm 19:52 Cloudy 47 8.3 32 0 56 56 SSE 6 9 30.39 1029 10 16.0934 0 0
8:52 pm 20:52 Cloudy 47 8.3 33 0.6 59 59 SSE 5 7 30.4 1029 10 16.0934 0 0
9:52 pm 21:52 Cloudy 47 8.3 32 0 56 56 SSE 7 11 30.38 1029 10 16.0934 0 0
10:52 pm 22:52 Cloudy 46 7.8 34 1.1 63 63 SSE 9 15 30.37 1029 10 16.0934 0 0
11:52 pm 23:52 Cloudy 46 7.8 35 1.7 66 66 S 9 15 30.38 1029 10 16.0934 0 0

Powered by AerisWeather